Starlink 11405

operational
NORAD ID: 63008 Int'l Des: 2025-032 Owner: SPXS Country: US Constellation: starlink
LEOCIRCULAR

About Starlink 11405

Description loading...

Live Position

Loading 3D Globe...

Upcoming Passes

Altitude History

Altitude vs Time

uPlot chart will show altitude changes over time

Two-Line Element Set

1 63008U 25032D 26093.56739929 .00366880 00000-0 27379-2 0 9990
2 63008 43.0013 45.6343 0001915 37.2586 322.8414 15.70844251 65970
Epoch: Apr 3, 2026 • Age: 19 hours

Current Status

Altitude 355.5 km
Velocity 7.70 km/s
Sub-Earth Point 36.29°N, 137.15°E
Launch Date Feb 15, 2025
Age 1.1 years
Type internet

Technical Details

Classification Payload
Mass 960.00 kg
Dry Mass 910.00 kg
Total Mass 960.00 kg
Length 0.30 m
Diameter 4.10 m
Span 29.00 m
Shape Box + pan
Manufacturer SPXS
Bus Type Starlink V2MD
Phase Status In Orbit
Owner/State SPXS/US

Large Constellations

Loading constellations...